Thunderstorms From: 20-05-2018 15:00 Until: 21-05-2018 15:00 warning for: Thunderstorms Level: Yellow info button

Although rather usual in this region, locally or potentially dangerous phenomena are expected. (such as local winds, summer thunderstorms, rising streams or high waves) Be aware and pay attention to the latest weather updates, especially if you carry out activities exposed to weather or close to a stream or shoreline. 


Meteo18 Weather Cam more information Meteo18 Weather Cam


warning for Thunderstorms more information blitzortung!


Rain radar more information rain snow radar


Visit our other weather sites:

Template documentation
and downloads

And another site



Weather Underground History page Text

Daily Summary for April 13, 2016 Units:  Metric    English   Both
« Previous Day
Next Day »
Daily Weekly Monthly Yearly Custom
  High: Low: Average:
Temperature: -17.8 °C -14.2 °C -11.8 °C
Dew Point: -17.8 °C -14.6 °C -13.1 °C
Humidity: Humidity % 60 % 87 %
Wind Speed: 0 km/h 0 km/h 2.4 km/h
Wind Gust: 0 km/h - -
Wind:- - SW
Pressure: 0 hPa 34097 hPa -
Precipitation: 469.9 mm    
Historical Graphs
 
 
Tabular Data for April 13, 2016
Time Temperature Dew Point Pressure Wind Wind Speed Wind Gust Humidity Rainfall Rate (Hourly)
-17.8 °C -17.8 °C 0 hPa Calm     Humidity % 0 mm
00:02 -11.4 °C -12.9 °C 34130.9 hPa WSW 5.1 km/h 18.2 km/h 83 % 0 mm
00:07 -11.6 °C -12.8 °C 34130.9 hPa SW 5.1 km/h 18.2 km/h 86 % 0 mm
00:12 -11.7 °C -12.8 °C 34144.4 hPa SW 12.9 km/h 12.9 km/h 87 % 0 mm
00:17 -11.6 °C -13 °C 34144.4 hPa SSW 5.1 km/h 18.2 km/h 84 % 7.62 mm
00:22 -11.6 °C -12.9 °C 34130.9 hPa Calm   18.2 km/h 85 % 12.7 mm
00:27 -11.6 °C -12.9 °C 34130.9 hPa Calm   18.2 km/h 86 % 12.7 mm
00:32 -11.8 °C -12.8 °C 34144.4 hPa SW 2.6 km/h 18.2 km/h 88 % 12.7 mm
00:37 -11.9 °C -12.8 °C 34144.4 hPa SW 2.6 km/h 7.7 km/h 89 % 20.32 mm
00:42 -11.9 °C -12.8 °C 34144.4 hPa SW 5.1 km/h 10.3 km/h 90 % 20.32 mm
00:47 -11.9 °C -12.8 °C 34144.4 hPa WSW 5.1 km/h 10.3 km/h 90 % 20.32 mm
00:52 -11.9 °C -12.8 °C 34144.4 hPa WSW 2.6 km/h 10.3 km/h 90 % 20.32 mm
00:57 -12 °C -12.9 °C 34144.4 hPa Calm   10.3 km/h 90 % 25.4 mm
01:02 -12 °C -12.9 °C 34144.4 hPa Calm   10.3 km/h 90 % 25.4 mm
01:07 -11.9 °C -12.9 °C 34144.4 hPa WSW 2.6 km/h 10.3 km/h 89 % 25.4 mm
01:12 -11.9 °C -13 °C 34144.4 hPa SW 2.6 km/h 7.7 km/h 88 % 33.02 mm
01:17 -11.9 °C -12.8 °C 34144.4 hPa Calm   10.3 km/h 89 % 25.4 mm
01:22 -11.9 °C -12.9 °C 34144.4 hPa Calm   10.3 km/h 89 % 25.4 mm
01:27 -12 °C -12.9 °C 34144.4 hPa Calm   10.3 km/h 89 % 25.4 mm
01:32 -12.1 °C -12.9 °C 34144.4 hPa Calm   5.1 km/h 90 % 20.32 mm
01:37 -12.1 °C -12.9 °C 34144.4 hPa Calm   2.6 km/h 91 % 12.7 mm
01:42 -12.2 °C -12.8 °C 34144.4 hPa Calm     92 % 20.32 mm
01:52 -12.2 °C -12.8 °C 34144.4 hPa Calm     93 % 20.32 mm
01:57 -12.3 °C -12.9 °C 34144.4 hPa Calm     93 % 12.7 mm
02:02 -12.3 °C -12.9 °C 34144.4 hPa Calm     93 % 12.7 mm
02:12 -12.3 °C -12.8 °C 34130.9 hPa Calm     94 % 12.7 mm
02:17 -12.4 °C -12.9 °C 34130.9 hPa Calm     94 % 7.62 mm
02:22 -12.4 °C -12.9 °C 34130.9 hPa Calm     94 % 12.7 mm
02:27 -12.4 °C -12.9 °C 34130.9 hPa Calm     94 % 12.7 mm
02:32 -12.4 °C -12.9 °C 34130.9 hPa Calm     94 % 12.7 mm
02:37 -12.4 °C -12.9 °C 34130.9 hPa Calm     94 % 12.7 mm
02:42 -12.4 °C -12.9 °C 34130.9 hPa Calm     94 % 7.62 mm
02:47 -12.4 °C -12.9 °C 34130.9 hPa Calm     94 % 7.62 mm
02:52 -12.4 °C -12.9 °C 34120.7 hPa Calm     94 % 7.62 mm
02:57 -12.4 °C -12.8 °C 34120.7 hPa Calm     95 % 7.62 mm
03:02 -12.4 °C -12.8 °C 34120.7 hPa Calm     95 % 7.62 mm
03:07 -12.4 °C -12.9 °C 34107.2 hPa Calm     95 % 7.62 mm
03:12 -12.4 °C -12.9 °C 34107.2 hPa Calm     95 % 7.62 mm
03:17 -12.5 °C -12.9 °C 34107.2 hPa Calm     95 % 7.62 mm
03:22 -12.6 °C -13 °C 34107.2 hPa Calm     95 % 0 mm
03:27 -12.6 °C -13 °C 34107.2 hPa Calm     95 % 0 mm
03:32 -12.6 °C -13.1 °C 34107.2 hPa Calm     95 % 0 mm
03:42 -12.7 °C -13.1 °C 34107.2 hPa Calm     95 % 0 mm
03:47 -12.7 °C -13.2 °C 34097 hPa Calm     95 % 0 mm
03:57 -12.9 °C -13.4 °C 34107.2 hPa Calm     95 % 0 mm
04:02 -13 °C -13.4 °C 34107.2 hPa Calm     95 % 0 mm
04:07 -13.1 °C -13.5 °C 34097 hPa Calm     95 % 0 mm
04:12 -13.2 °C -13.6 °C 34097 hPa Calm     95 % 0 mm
04:17 -13.2 °C -13.7 °C 34107.2 hPa Calm     95 % 0 mm
04:22 -13.3 °C -13.8 °C 34097 hPa Calm     95 % 0 mm
04:27 -13.5 °C -13.9 °C 34097 hPa Calm     95 % 0 mm
04:32 -13.6 °C -13.9 °C 34107.2 hPa Calm     95 % 0 mm
04:37 -13.7 °C -14.1 °C 34107.2 hPa Calm     95 % 0 mm
04:42 -13.7 °C -14.1 °C 34107.2 hPa Calm     95 % 0 mm
04:47 -13.8 °C -14.2 °C 34107.2 hPa Calm     95 % 0 mm
04:52 -13.8 °C -14.2 °C 34107.2 hPa Calm     95 % 0 mm
04:57 -13.8 °C -14.2 °C 34107.2 hPa Calm     96 % 0 mm
05:02 -13.8 °C -14.2 °C 34107.2 hPa Calm     96 % 0 mm
05:07 -13.9 °C -14.2 °C 34097 hPa Calm     96 % 0 mm
05:12 -13.9 °C -14.2 °C 34107.2 hPa Calm     96 % 0 mm
05:17 -13.8 °C -14.2 °C 34097 hPa Calm     96 % 0 mm
05:22 -13.8 °C -14.2 °C 34097 hPa Calm     96 % 0 mm
05:32 -13.8 °C -14.2 °C 34097 hPa Calm     96 % 0 mm
05:37 -13.8 °C -14 °C 34097 hPa Calm     97 % 0 mm
05:42 -13.8 °C -14.2 °C 34097 hPa Calm     96 % 0 mm
05:47 -13.8 °C -14.2 °C 34097 hPa Calm     96 % 0 mm
05:52 -13.9 °C -14.2 °C 34097 hPa Calm     96 % 0 mm
05:57 -13.9 °C -14.3 °C 34097 hPa Calm     96 % 0 mm
06:02 -13.9 °C -14.3 °C 34097 hPa Calm     96 % 0 mm
06:07 -14.1 °C -14.4 °C 34097 hPa Calm     96 % 0 mm
06:12 -14.1 °C -14.4 °C 34097 hPa Calm     96 % 0 mm
06:17 -14.2 °C -14.6 °C 34097 hPa Calm     96 % 0 mm
06:22 -14.2 °C -14.6 °C 34097 hPa Calm     96 % 0 mm
06:27 -14.2 °C -14.4 °C 34097 hPa Calm     97 % 0 mm
06:32 -14.2 °C -14.4 °C 34097 hPa Calm     97 % 0 mm
06:42 -14.2 °C -14.6 °C 34097 hPa Calm     96 % 0 mm
06:47 -14.2 °C -14.4 °C 34097 hPa Calm     97 % 0 mm
06:52 -14.2 °C -14.4 °C 34097 hPa Calm     97 % 0 mm
06:57 -14.1 °C -14.3 °C 34097 hPa Calm     97 % 0 mm
07:02 -14 °C -14.2 °C 34097 hPa Calm     97 % 0 mm
07:07 -13.9 °C -14.2 °C 34097 hPa Calm     97 % 0 mm
07:12 -13.9 °C -14.1 °C 34107.2 hPa Calm     97 % 0 mm
07:17 -13.8 °C -14.1 °C 34107.2 hPa Calm     97 % 0 mm
07:22 -13.8 °C -14.1 °C 34107.2 hPa Calm     97 % 0 mm
07:27 -13.8 °C -14.1 °C 34107.2 hPa Calm     97 % 0 mm
07:32 -13.9 °C -14.2 °C 34097 hPa Calm     97 % 0 mm
07:37 -13.9 °C -14.2 °C 34097 hPa Calm     97 % 0 mm
07:42 -14.1 °C -14.3 °C 34097 hPa Calm     97 % 0 mm
07:47 -14.1 °C -14.3 °C 34107.2 hPa Calm     97 % 0 mm
07:52 -14.1 °C -14.3 °C 34107.2 hPa Calm     97 % 0 mm
07:57 -14.1 °C -14.3 °C 34107.2 hPa Calm     97 % 0 mm
08:02 -14.1 °C -14.3 °C 34107.2 hPa Calm     97 % 0 mm
08:07 -14.1 °C -14.3 °C 34107.2 hPa Calm     97 % 0 mm
08:12 -13.9 °C -14.2 °C 34107.2 hPa Calm     97 % 0 mm
08:17 -13.8 °C -13.9 °C 34107.2 hPa Calm     98 % 0 mm
08:22 -13.7 °C -13.8 °C 34107.2 hPa Calm     98 % 0 mm
08:27 -13.6 °C -13.8 °C 34107.2 hPa Calm     98 % 0 mm
08:32 -13.4 °C -13.6 °C 34107.2 hPa Calm     98 % 0 mm
08:37 -13.4 °C -13.6 °C 34107.2 hPa Calm     98 % 0 mm
08:47 -12.9 °C -13.1 °C 34107.2 hPa Calm     98 % 0 mm
08:52 -12.7 °C -12.9 °C 34107.2 hPa Calm     98 % 0 mm
09:02 -12.6 °C -12.7 °C 34107.2 hPa South 2.6 km/h 2.6 km/h 98 % 0 mm
09:12 -12.3 °C -12.5 °C 34120.7 hPa Calm   5.1 km/h 98 % 0 mm
09:17 -12.1 °C -12.3 °C 34120.7 hPa Calm   5.1 km/h 98 % 0 mm
09:22 -12 °C -12.2 °C 34107.2 hPa Calm   10.3 km/h 98 % 0 mm
09:27 -11.9 °C -12.2 °C 34107.2 hPa Calm   10.3 km/h 97 % 0 mm
09:32 -11.8 °C -12.3 °C 34107.2 hPa SW 2.6 km/h 10.3 km/h 95 % 0 mm
09:37 -11.8 °C -12.3 °C 34107.2 hPa Calm   10.3 km/h 95 % 0 mm
09:42 -11.8 °C -12.3 °C 34107.2 hPa Calm   10.3 km/h 94 % 0 mm
09:47 -11.7 °C -12.1 °C 34107.2 hPa Calm   7.7 km/h 95 % 0 mm
09:52 -11.3 °C -11.9 °C 34107.2 hPa Calm   5.1 km/h 93 % 0 mm
10:02 -11 °C -11.8 °C 34120.7 hPa SW 7.7 km/h 10.3 km/h 91 % 0 mm
10:07 -11.2 °C -12.1 °C 34120.7 hPa SW 5.1 km/h 12.9 km/h 90 % 0 mm
10:12 -11.3 °C -12.2 °C 34120.7 hPa SW 2.6 km/h 12.9 km/h 90 % 0 mm
10:17 -11.3 °C -12.2 °C 34120.7 hPa WSW 5.1 km/h 10.3 km/h 90 % 0 mm
10:27 -10.8 °C -11.8 °C 34120.7 hPa SW 5.1 km/h 7.7 km/h 89 % 0 mm
10:32 -10.5 °C -11.5 °C 34120.7 hPa WSW 5.1 km/h 7.7 km/h 89 % 0 mm
10:37 -10.2 °C -11.4 °C 34120.7 hPa WSW 5.1 km/h 10.3 km/h 87 % 0 mm
10:42 -10.2 °C -11.9 °C 34120.7 hPa WSW 2.6 km/h 12.9 km/h 82 % 0 mm
10:47 -10.1 °C -11.8 °C 34120.7 hPa SW 5.1 km/h 12.9 km/h 82 % 0 mm
10:52 -9.9 °C -11.6 °C 34120.7 hPa Calm   12.9 km/h 82 % 0 mm
10:57 -9.8 °C -11.7 °C 34120.7 hPa SW 5.1 km/h 10.3 km/h 80 % 0 mm
11:02 -9.7 °C -11.6 °C 34120.7 hPa WSW 5.1 km/h 7.7 km/h 80 % 0 mm
11:07 -9.5 °C -11.4 °C 34120.7 hPa Calm   10.3 km/h 80 % 0 mm
11:17 -9.1 °C -11.7 °C 34130.9 hPa WSW 5.1 km/h 12.9 km/h 74 % 0 mm
11:22 -9.1 °C -11.6 °C 34130.9 hPa Calm   15.6 km/h 75 % 0 mm
11:27 -8.7 °C -11.1 °C 34130.9 hPa NE 2.6 km/h 15.6 km/h 76 % 0 mm
11:32 -8.7 °C -11.6 °C 34130.9 hPa Calm   10.3 km/h 72 % 0 mm
11:37 -8.7 °C -11.4 °C 34130.9 hPa Calm   10.3 km/h 73 % 0 mm
11:52 -8.6 °C -11.7 °C 34130.9 hPa Calm   12.9 km/h 69 % 0 mm
11:57 -8.5 °C -11.4 °C 34130.9 hPa SW 5.1 km/h 12.9 km/h 71 % 0 mm
12:02 -8.5 °C -12.1 °C 34130.9 hPa WSW 5.1 km/h 10.3 km/h 66 % 0 mm
12:07 -8.6 °C -12 °C 34130.9 hPa Calm   10.3 km/h 67 % 0 mm
12:12 -8.6 °C -12.2 °C 34130.9 hPa NE 2.6 km/h 10.3 km/h 66 % 0 mm
12:17 -8.4 °C -11.6 °C 34130.9 hPa Calm   10.3 km/h 69 % 0 mm
12:22 -8.4 °C -11.7 °C 34130.9 hPa SW 12.9 km/h 12.9 km/h 68 % 0 mm
12:27 -8.4 °C -11.2 °C 34130.9 hPa SW 5.1 km/h 18.2 km/h 72 % 0 mm
12:32 -8.2 °C -11.7 °C 34130.9 hPa SW 12.9 km/h 18.2 km/h 67 % 0 mm
12:37 -8.3 °C -11.6 °C 34130.9 hPa West 10.3 km/h 15.6 km/h 68 % 0 mm
12:47 -8.2 °C -11.4 °C 34120.7 hPa WSW 10.3 km/h 18.2 km/h 69 % 0 mm
12:52 -8.1 °C -11.5 °C 34120.7 hPa SW 2.6 km/h 18.2 km/h 67 % 0 mm
13:02 -8.1 °C -11.9 °C 34120.7 hPa Calm   18.2 km/h 64 % 0 mm
13:12 -8.1 °C -12.2 °C 34120.7 hPa Calm   10.3 km/h 62 % 0 mm
13:17 -8.1 °C -12.2 °C 34120.7 hPa SW 2.6 km/h 15.6 km/h 62 % 0 mm
13:22 -8.2 °C -12.2 °C 34120.7 hPa South 2.6 km/h 15.6 km/h 63 % 0 mm
13:27 -8.3 °C -12.2 °C 34107.2 hPa Calm   15.6 km/h 63 % 0 mm
13:32 -8.3 °C -11.9 °C 34107.2 hPa SW 2.6 km/h 12.9 km/h 65 % 0 mm
13:37 -8.5 °C -11.9 °C 34107.2 hPa SW 7.7 km/h 10.3 km/h 67 % 0 mm
13:42 -8.8 °C -12.4 °C 34107.2 hPa SSW 5.1 km/h 10.3 km/h 66 % 0 mm
13:47 -8.7 °C -11.8 °C 34107.2 hPa SW 2.6 km/h 10.3 km/h 69 % 0 mm
13:52 -8.2 °C -11.2 °C 34107.2 hPa SSW 2.6 km/h 10.3 km/h 71 % 0 mm
13:57 -8 °C -11.7 °C 34107.2 hPa SW 7.7 km/h 15.6 km/h 65 % 0 mm
14:02 -8.3 °C -12.1 °C 34107.2 hPa Calm   15.6 km/h 64 % 0 mm
14:07 -8.5 °C -12.2 °C 34107.2 hPa SW 5.1 km/h 15.6 km/h 65 % 0 mm
14:12 -8.3 °C -12.1 °C 34107.2 hPa SW 7.7 km/h 12.9 km/h 64 % 0 mm
14:17 -8.2 °C -12 °C 34107.2 hPa SW 5.1 km/h 15.6 km/h 64 % 0 mm
14:22 -8.3 °C -12.2 °C 34107.2 hPa SW 7.7 km/h 15.6 km/h 63 % 0 mm
14:32 -8.4 °C -12.8 °C 34107.2 hPa WSW 20.8 km/h 20.8 km/h 60 % 0 mm
14:37 -8.5 °C -12.3 °C 34107.2 hPa SW 5.1 km/h 20.8 km/h 64 % 0 mm
14:47 -8.7 °C -12.6 °C 34120.7 hPa West 2.6 km/h 20.8 km/h 63 % 0 mm
14:52 -8.7 °C -11.8 °C 34120.7 hPa SW 7.7 km/h 12.9 km/h 69 % 0 mm
14:57 -8.7 °C -11.6 °C 34107.2 hPa WSW 7.7 km/h 15.6 km/h 72 % 0 mm
15:02 -8.8 °C -12.2 °C 34120.7 hPa Calm   15.6 km/h 67 % 0 mm
15:12 -8.8 °C -11.8 °C 34120.7 hPa SW 2.6 km/h 18.2 km/h 70 % 0 mm
15:17 -8.8 °C -11.3 °C 34120.7 hPa WSW 5.1 km/h 18.2 km/h 75 % 0 mm
15:22 -8.7 °C -11.6 °C 34120.7 hPa SW 7.7 km/h 20.8 km/h 72 % 0 mm
15:27 -8.2 °C -10.8 °C 34107.2 hPa SW 7.7 km/h 20.8 km/h 74 % 0 mm
15:37 -7.7 °C -11.4 °C 34107.2 hPa WSW 7.7 km/h 23.3 km/h 65 % 0 mm
15:42 -7.7 °C -11.2 °C 34107.2 hPa West 7.7 km/h 23.3 km/h 67 % 0 mm
15:47 -7.7 °C -11.2 °C 34107.2 hPa SW 7.7 km/h 23.3 km/h 67 % 0 mm
15:52 -7.9 °C -10.7 °C 34107.2 hPa West 7.7 km/h 18.2 km/h 72 % 0 mm
15:57 -8.2 °C -11.3 °C 34107.2 hPa West 5.1 km/h 20.8 km/h 69 % 0 mm
16:02 -8.7 °C -11.4 °C 34107.2 hPa South 10.3 km/h 25.9 km/h 73 % 0 mm
16:12 -9 °C -11.2 °C 34097 hPa West 12.9 km/h 20.8 km/h 77 % 0 mm
16:17 -9.3 °C -11.6 °C 34097 hPa SW 5.1 km/h 25.9 km/h 77 % 0 mm
16:22 -9.5 °C -11.6 °C 34097 hPa West 23.3 km/h 25.9 km/h 78 % 0 mm
16:27 -9.6 °C -11.7 °C 34107.2 hPa SW 5.1 km/h 25.9 km/h 78 % 0 mm
16:32 -9.7 °C -11.7 °C 34107.2 hPa Calm   25.9 km/h 79 % 0 mm
16:42 -10 °C -13.1 °C 34120.7 hPa ENE 7.7 km/h 12.9 km/h 69 % 0 mm
16:47 -10.2 °C -12.3 °C 34120.7 hPa WSW 10.3 km/h 15.6 km/h 78 % 0 mm
16:52 -10.7 °C -12.9 °C 34130.9 hPa WSW 2.6 km/h 20.8 km/h 77 % 45.72 mm
16:57 -11.6 °C -13.4 °C 34130.9 hPa Calm   20.8 km/h 80 % 71.12 mm
17:02 -12.2 °C -13.9 °C 34144.4 hPa Calm   20.8 km/h 81 % 104.14 mm
17:07 -12.4 °C -13.9 °C 34130.9 hPa Calm   10.3 km/h 83 % 104.14 mm
17:12 -12.7 °C -13.9 °C 34130.9 hPa Calm   5.1 km/h 86 % 104.14 mm
17:17 -12.8 °C -13.8 °C 34130.9 hPa Calm   2.6 km/h 89 % 104.14 mm
17:22 -12.7 °C -13.5 °C 34144.4 hPa Calm   2.6 km/h 91 % 104.14 mm
17:32 -12.8 °C -13.4 °C 34154.6 hPa Calm   2.6 km/h 92 % 109.22 mm
17:42 -12.8 °C -13.4 °C 34164.7 hPa Calm   2.6 km/h 93 % 134.62 mm
17:47 -12.8 °C -13.4 °C 34154.6 hPa Calm   2.6 km/h 93 % 142.24 mm
17:52 -12.7 °C -13.3 °C 34154.6 hPa Calm   5.1 km/h 93 % 121.92 mm
17:57 -12.7 °C -13.4 °C 34144.4 hPa Calm   7.7 km/h 91 % 71.12 mm
18:02 -12.7 °C -13.4 °C 34144.4 hPa West 2.6 km/h 7.7 km/h 91 % 76.2 mm
18:12 -12.7 °C -13.6 °C 34144.4 hPa West 2.6 km/h 7.7 km/h 90 % 83.82 mm
18:17 -12.7 °C -13.6 °C 34144.4 hPa Calm   7.7 km/h 89 % 83.82 mm
18:22 -12.6 °C -13.5 °C 34144.4 hPa Calm   7.7 km/h 90 % 76.2 mm
18:27 -12.6 °C -13.5 °C 34154.6 hPa Calm   5.1 km/h 90 % 76.2 mm
18:32 -12.6 °C -13.5 °C 34154.6 hPa Calm   5.1 km/h 90 % 76.2 mm
18:37 -12.7 °C -13.4 °C 34154.6 hPa WSW 2.6 km/h 5.1 km/h 91 % 50.8 mm
18:42 -12.7 °C -13.7 °C 34154.6 hPa WSW 2.6 km/h 7.7 km/h 89 % 38.1 mm
18:52 -12.8 °C -13.8 °C 34164.7 hPa Calm   7.7 km/h 89 % 12.7 mm
18:57 -12.8 °C -13.7 °C 34178.3 hPa Calm   7.7 km/h 90 % 12.7 mm
19:02 -12.8 °C -13.6 °C 34178.3 hPa Calm   5.1 km/h 91 % 12.7 mm
19:07 -12.8 °C -13.5 °C 34178.3 hPa Calm   2.6 km/h 92 % 12.7 mm
19:12 -12.9 °C -13.5 °C 34188.4 hPa ENE 2.6 km/h 2.6 km/h 93 % 7.62 mm
19:17 -12.9 °C -13.6 °C 34188.4 hPa Calm   2.6 km/h 93 % 12.7 mm
19:22 -12.9 °C -13.5 °C 34188.4 hPa Calm   2.6 km/h 93 % 12.7 mm
19:27 -12.9 °C -13.4 °C 34188.4 hPa Calm   2.6 km/h 94 % 12.7 mm
19:32 -12.8 °C -13.4 °C 34198.6 hPa Calm   10.3 km/h 93 % 12.7 mm
19:37 -12.7 °C -13.3 °C 34198.6 hPa SW 2.6 km/h 10.3 km/h 92 % 20.32 mm
19:42 -12.6 °C -13.3 °C 34198.6 hPa WSW 2.6 km/h 10.3 km/h 92 % 20.32 mm
19:47 -12.7 °C -13.3 °C 34198.6 hPa SW 2.6 km/h 5.1 km/h 93 % 25.4 mm
19:52 -12.7 °C -13.3 °C 34198.6 hPa WSW 2.6 km/h 7.7 km/h 93 % 25.4 mm
19:57 -12.7 °C -13.3 °C 34212.1 hPa SW 5.1 km/h 10.3 km/h 93 % 38.1 mm
20:02 -12.7 °C -13.3 °C 34212.1 hPa South 10.3 km/h 10.3 km/h 93 % 45.72 mm
20:07 -12.8 °C -13.5 °C 34222.3 hPa SW 10.3 km/h 18.2 km/h 92 % 58.42 mm
20:12 -12.7 °C -13.4 °C 34222.3 hPa SW 12.9 km/h 18.2 km/h 92 % 83.82 mm
20:17 -12.7 °C -13.3 °C 34222.3 hPa SW 20.8 km/h 23.3 km/h 92 % 91.44 mm
20:22 -12.7 °C -13.3 °C 34222.3 hPa WSW 5.1 km/h 28.5 km/h 92 % 104.14 mm
20:27 -12.7 °C -13.6 °C 34235.8 hPa SW 5.1 km/h 28.5 km/h 89 % 109.22 mm
20:32 -12.7 °C -13.6 °C 34235.8 hPa WSW 10.3 km/h 28.5 km/h 90 % 147.32 mm
20:37 -12.8 °C -13.7 °C 34235.8 hPa WSW 2.6 km/h 20.8 km/h 90 % 147.32 mm
20:42 -12.8 °C -13.7 °C 34235.8 hPa SW 7.7 km/h 20.8 km/h 90 % 180.34 mm
20:47 -12.9 °C -13.8 °C 34235.8 hPa SW 5.1 km/h 20.8 km/h 90 % 187.96 mm
20:52 -12.8 °C -13.6 °C 34235.8 hPa SW 5.1 km/h 20.8 km/h 91 % 180.34 mm
20:57 -12.8 °C -13.5 °C 34222.3 hPa Calm   20.8 km/h 92 % 193.04 mm
21:02 -12.9 °C -13.5 °C 34222.3 hPa Calm   20.8 km/h 93 % 193.04 mm
21:12 -12.9 °C -13.6 °C 34212.1 hPa WSW 5.1 km/h 15.6 km/h 93 % 154.94 mm
21:17 -12.9 °C -13.6 °C 34212.1 hPa SSW 7.7 km/h 18.2 km/h 92 % 142.24 mm
21:22 -12.9 °C -13.6 °C 34212.1 hPa WSW 5.1 km/h 18.2 km/h 93 % 121.92 mm
21:27 -12.9 °C -13.6 °C 34222.3 hPa SW 7.7 km/h 15.6 km/h 93 % 109.22 mm
21:32 -12.9 °C -13.6 °C 34222.3 hPa SW 5.1 km/h 15.6 km/h 92 % 83.82 mm
21:37 -12.9 °C -13.6 °C 34222.3 hPa SW 7.7 km/h 15.6 km/h 92 % 58.42 mm
21:42 -12.8 °C -13.5 °C 34222.3 hPa SW 5.1 km/h 15.6 km/h 92 % 38.1 mm
21:47 -12.8 °C -13.5 °C 34222.3 hPa WSW 7.7 km/h 12.9 km/h 92 % 33.02 mm
21:57 -12.8 °C -13.5 °C 34235.8 hPa South 5.1 km/h 12.9 km/h 92 % 7.62 mm
22:02 -12.9 °C -13.5 °C 34235.8 hPa West 2.6 km/h 10.3 km/h 93 % 0 mm
22:12 -12.9 °C -13.4 °C 34235.8 hPa SW 2.6 km/h 7.7 km/h 94 % 0 mm
22:17 -12.9 °C -13.4 °C 34235.8 hPa SW 2.6 km/h 7.7 km/h 94 % 0 mm
22:22 -12.9 °C -13.4 °C 34246 hPa Calm   7.7 km/h 94 % 0 mm
22:27 -12.9 °C -13.4 °C 34246 hPa Calm   7.7 km/h 94 % 0 mm
22:37 -13 °C -13.5 °C 34256.2 hPa Calm   2.6 km/h 94 % 0 mm
22:42 -13 °C -13.5 °C 34256.2 hPa Calm   2.6 km/h 94 % 0 mm
22:47 -13 °C -13.5 °C 34256.2 hPa WSW 5.1 km/h 5.1 km/h 94 % 0 mm
22:52 -13 °C -13.5 °C 34256.2 hPa Calm   7.7 km/h 94 % 0 mm
22:57 -13 °C -13.5 °C 34256.2 hPa WSW 2.6 km/h 10.3 km/h 94 % 0 mm
23:02 -12.9 °C -13.4 °C 34256.2 hPa Calm   10.3 km/h 94 % 0 mm
23:07 -12.9 °C -13.4 °C 34256.2 hPa Calm   5.1 km/h 94 % 0 mm
23:12 -13 °C -13.5 °C 34256.2 hPa Calm   5.1 km/h 94 % 0 mm
23:17 -13 °C -13.5 °C 34269.7 hPa Calm   5.1 km/h 94 % 0 mm
23:22 -13 °C -13.5 °C 34269.7 hPa Calm   2.6 km/h 94 % 0 mm
23:27 -13.1 °C -13.6 °C 34269.7 hPa Calm   2.6 km/h 94 % 0 mm
23:32 -13.1 °C -13.6 °C 34279.9 hPa Calm     94 % 0 mm
23:37 -13.1 °C -13.6 °C 34279.9 hPa Calm     95 % 0 mm
23:42 -13.1 °C -13.6 °C 34269.7 hPa Calm   2.6 km/h 95 % 0 mm
23:47 -13.1 °C -13.6 °C 34269.7 hPa Calm   5.1 km/h 95 % 0 mm
23:52 -13.1 °C -13.6 °C 34269.7 hPa WSW 5.1 km/h 5.1 km/h 95 % 0 mm
23:57 -13.1 °C -13.6 °C 34279.9 hPa Calm   12.9 km/h 94 % 0 mm
Meteo18
Compliments of Weather Underground - 4 mb

Script developed by  Jim McMurry - jmcmurry@mwt.net Adapted for the template by  Wim van der Kuil - Leuven-Template.eu

You find our weather info also at:

European Weather Network

Weather Underground

Equipment we use:

Weather-station
Davis Vue

Weather-program
Meteobridge

Weather-server
Raspberry PI 2 B+

Provider
1 and 1

Davis Vue

Meteobridge

Raspberry PI 2 B+

1 and 1